User: anonymous   Login
Location: Onan Observatory
(44.8103°N, 93.9397°W)
Time: 12:10:33
(UTC-05:00)
Language:

Iridium 90 - Orbit

View from above orbital plane
View from above orbital plane
View from above satellite
View from above satellite

Ground track
Ground track

The orbit data is extracted from the following two-line orbital elements,

1 27373U 02005B   14296.32068653  .00000987  00000-0  28932-3 0  5317
2 27373 086.4507 034.6175 0002245 062.7905 297.3524 14.42958590671780
Epoch (UTC): 23 October 2014 07:41:47
Eccentricity: 0.0002245
inclination: 86.4507°
perigee height: 747 km
apogee height: 750 km
right ascension of ascending node: 34.6175°
argument of perigee: 62.7905°
revolutions per day: 14.42958590
mean anomaly at epoch: 297.3524°
orbit number at epoch: 67178

The dashed part of the orbit path shows where the satellite is in the earth's shadow,  

DLR